Location: Breungeshain
(50.5000°N, 9.2000°E)
Time: 05:21:28
(UTC+00:00)

ISS - Pass Details

Date: 20 May 2018
Orbit: 402 x 407 km, 51.6° (Epoch: 24 May)

Event Time Altitude Azimuth Distance (km) Brightness Sun altitude
Rises 21:06:55 0° 224° (SW) 2,311 -0.1 -13.6°
Reaches altitude 10° 21:09:07 10° 214° (SW) 1,454 -1.3 -13.7°
Maximum altitude 21:12:04 32° 149° (SSE) 717 -3.2 -14.0°
Drops below altitude 10° 21:15:01 10° 84° (E) 1,459 -1.3 -14.2°
Sets 21:17:13 0° 74° (ENE) 2,321 -0.1 -14.4°
